www.pogodaiklimat.ru
Время
и дата
11:29 30.12
11:54 30.12
12:54 30.12
13:54 30.12
14:54 30.12
15:54 30.12
16:54 30.12
17:42 30.12
17:54 30.12
18:36 30.12
18:54 30.12
19:54 30.12
20:54 30.12
21:54 30.12
22:25 30.12
22:54 30.12
23:54 30.12
00:12 31.12
00:31 31.12
00:54 31.12
01:23 31.12
01:54 31.12
02:41 31.12
02:54 31.12
03:54 31.12
04:54 31.12
05:54 31.12
06:31 31.12
06:54 31.12
07:45 31.12
07:54 31.12
08:54 31.12
09:29 31.12
09:36 31.12
09:54 31.12
10:39 31.12
10:54 31.12
11:22 31.12
11:54 31.12
12:54 31.12
13:54 31.12
14:54 31.12
15:54 31.12
16:54 31.12
17:54 31.12
17:58 31.12
18:05 31.01
18:07 31.01
Ветер
(напр.,м/с)
Видим. Явления Облачность Т
(С)
Тd
(С)
f
(%)
Тe
(С)
Тes
(С)
Комфортность P
(гПа)
Po
(гПа)
Тmin
(С)
Tmax
(С)
R
(мм)
R24
(мм)
S
(см)
штиль 0 11 км 10/8 270 м
[Ac]
+3.3 +1.7 89 +2 +3 993.2
штиль 0 14 км 10/10 330 м +3.9 +1.1 82 +3 +3 1013.5 992.5
штиль 0 16 км 10/8 360 м
[Ac]
+5.0 +1.7 79 +4 +5 1012.5 991.5 +1.7 +5.0
штиль 0 16 км 10/10 600 м +5.0 +1.1 76 +4 +4 1011.9 990.8
штиль 0 16 км 10/10 510 м +5.0 +1.7 79 +4 +4 1012.0 990.8
С 2 13 км 10/10 510 м +3.9 +1.7 86 -1 -1 1012.8 991.8
СВ 1 14 км 10/10 450 м +3.9 +1.7 86 0 0 1012.9 991.8
СВ 1 14 км 10/10 390 м +3.9 +2.2 89 0 0 992.2
СВ 1 14 км слабый дождь 10/10 390 м +3.9 +2.2 89 +1 +1 1013.3 992.2
СВ 1 11 км слабый дождь 10/10 210 м +3.9 +2.2 89 +1 +1 992.2
СВ 1 11 км слабый дождь 10/10 210 м +3.3 +2.2 92 -1 -1 1013.3 992.2 +3.3 +5.0
СВ 1 10 км слабый дождь, дымка 10/10 180 м +3.9 +2.8 93 +1 +1 1013.6 992.5
штиль 0 10 км дымка 10/10 180 м +3.3 +2.8 97 +2 +2 1013.5 992.5
штиль 0 8 км дымка 10/10 150 м +3.3 +2.8 97 +2 +2 1013.6 992.5
штиль 0 8 км дымка 10/10 120 м +3.3 +2.8 97 +2 +2 992.8
штиль 0 6 км дымка 10/10 120 м +3.3 +2.8 97 +2 +2 1013.7 992.5
штиль 0 6 км дымка 10/10 90 м +3.3 +2.8 97 +2 +2 1013.3 992.2
штиль 0 3 км дымка 10/10 90 м +3.3 +2.8 97 +2 +2 992.2
штиль 0 2 км дымка 10/10 90 м +3.3 +3.3 100 +2 +2 992.2
штиль 0 1 км дымка 10/10 60 м +3.3 +2.8 97 +2 +2 1013.1 992.2 +3.3 +3.9
штиль 0 3 км дымка 10/10 90 м +3.3 +3.3 100 +2 +2 992.2
штиль 0 4 км дымка 10/10 120 м +3.3 +2.8 97 +2 +2 1013.3 992.2
В 1 8 км дымка 10/10 150 м +3.3 +2.8 97 0 0 992.2
В 1 6 км дымка 10/10 120 м +3.3 +2.8 97 0 0 1012.9 991.8
ЮВ 1 6 км дымка 10/10 90 м +3.3 +2.8 97 -1 -1 1012.0 990.8
ЮВ 1 6 км дымка 10/10 120 м +3.3 +2.8 97 0 0 1011.6 990.5
В 1 8 км дымка 10/10 120 м +3.3 +2.8 97 0 0 1011.8 990.8
В 1 4 км слабый дождь, дымка 10/10 120 м +3.3 +2.8 97 0 0 990.5
ЮВ 1 4 км слабый дождь, дымка 10/10 120 м +3.3 +3.3 100 0 0 1011.5 990.5 +3.3 +3.9 0.3 0.3
штиль 0 3 км слабый дождь, дымка 10/10 м +3.3 +3.3 100 +2 +2 990.5
штиль 0 3 км дымка 10/10 м +3.3 +3.3 100 +2 +2 1011.5 990.5
Ю 1 3 км слабый дождь, дымка 10/10 630 м +3.9 +3.3 96 +1 +1 1011.8 990.8
Ю 1 6 км дымка 8/8 510 м +4.4 +3.9 97 +1 +2 990.8
ЮЗ 1 4 км дымка 8/8 510 м +4.4 +3.9 97 +1 +2 990.8
ЮЗ 1 4 км дымка 10/10 510 м +5.0 +3.9 93 +2 +2 1012.1 991.2 0.3
ЮЗ 1 4 км слабый дождь, дымка 10/10 150 м +5.0 +4.4 96 +1 +1 991.2
ЮЗ 1 4 км слабый дождь, дымка 10/10 150 м +5.6 +5.0 96 +3 +3 1012.1 991.2
ЮЗ 1 10 км дымка 8/8 390 м +6.7 +5.6 93 +3 +4 990.8
ЮЗ 1 11 км 10/10 210 м +6.7 +6.1 96 +3 +3 1011.7 990.5
ЮЗ 2 16 км 8/8 210 м +8.9 +6.1 83 +5 +6 1010.8 989.8 +3.9 +8.9 0.5
ЮЗ 3 16 км 8/8 630 м +10.0 +5.0 71 +7 +7 1010.2 989.2
ЮЗ 2 16 км 8/8 600 м +9.4 +4.4 71 +7 +7 1010.4 989.5
З 1 16 км 8/8 600 м +9.4 +4.4 71 +7 +7 1010.7 989.8
штиль 0 16 км 8/8 1260 м +8.3 +4.4 76 +8 +8 1011.0 990.2
СВ 2 11 км 8/8 1350 м +5.0 +3.9 93 +1 +1 1011.7 990.5
СВ 2 10 км дымка 5/5 90 м +5.0 +3.9 93 0 0 990.8
С 2 3 км дымка 8/8 90 м +5.0 +4.4 96 +1 +1 990.8
СВ 2 3 км дымка 8/8 90 м +5.0 +4.4 96 +1 +1 990.8
Местоположение метеостанции Greater Rochester International Airport: широта 43.1167 долгота -77.6767 высота над уровнем моря 170 м.
В архиве по умолчанию представлена погода в Рочестере за последние 1-2 суток. Обновление информации о фактической погоде в базе происходит ежечасно! Архивные данные за месяц целиком и за предыдущие месяцы Вы можете получить, выбрав интересующий диапазон дат из раскрывающегося списка и нажав кнопку "Ввод!".
Внимание! Архив погоды МЕТАР в базе сайта по станциям, не включенным в климатический монитор, хранится не более 60 дней. Нет смысла пытаться выбрать более раннюю дату.
*Определитесь, кто Вы:
Внимание! Время в таблицах - местное (без учета летнего времени). Для получения всемирного времени необходимо вычесть поправку, которая равна -5 ч.
Смотрите также архив погоды в соседних городах и на ближайших метеорологических станциях:
Партнеры нашего сайта:      
Пояснения к столбцам:
  • Ветер - указаны скорость ветра в м/с - средняя за 10 мин, порывы в срок и между сроками (в фигурных скобках) и направление, откуда дует ветер: С - северный,
  • СВ - северо-восточный, В - восточный, ЮВ - юго-восточный, Ю - южный, ЮЗ - юго-западный, З - западный, СЗ - северо-западный.
  • Видимость - горизонтальная дальность видимости в метрах или километрах. При видимости от 1 до 10 км при отсутствии осадков обычно наблюдается дымка, при ухудшении видимости до 1 км и менее - туман. В сухую погоду видимость может ухудшаться дымом, пылью или мглою.
  • Явления - указаны атмосферные явления, наблюдавшиеся в срок или в последний час перед сроком; фигурными скобками обозначены явления, наблюдавшиеся между сроками (за 1-3 часа до срока); квадратными скобками обозначены град или гололедные отложения с указанием их диаметра в мм.
  • Облачность - указаны через наклонную черту общая и нижняя облачность в баллах и высота нижней границы облаков в метрах; квадратными скобками обозначены формы облаков: Ci - перистые, Cs - перисто-слоистые, Cc - перисто-кучевые, Ac - высококучевые, As - высокослоистые, Sc - слоисто-кучевые, Ns - слоисто-дождевые, Cu - кучевые, Cb - кучево-дождевые. Подробнее классификацию облаков см. в Атласе облаков (PDF).
  • T - Температура воздуха - температура, измеренная на высоте 2 м над землей.
  • Td - Температура точки росы - температура, при понижении до которой содержащийся в воздухе водяной пар достигнет насыщения.
  • f - Относительная влажность воздуха - влажноcть воздуха, измеренная на высоте 2 м над землей.
  • Te - Эффективная температура - температура, которую ощущает одетый по сезону человек в тени. Характеристика душности погоды. При расчете учитывается влияние влажности воздуха и скорости ветра на теплоощущения человека.
  • Tes - Эффективная температура на солнце - температура, которую ощущает человек, с поправкой на солнечный нагрев. Характеристика знойности погоды. Зависит от высоты солнца над горизонтом, облачности и скорости ветра. Ночью, в пасмурную погоду, а также при ветре 12 м/с и более поправка равна нулю.
  • P - Атмосферное давление - приведенное к уровню моря атмосферное давление.
  • Po - Атмосферное давление - измеренное на уровне метеостанции атмосферное давление.
  • Tmin - Минимальная температура - минимум температуры воздуха на высоте 2 м над землей.
  • Tmax - Максимальная температура - максимум температуры воздуха на высоте 2 м над землей.
  • R - Количество осадков - Количество выпавших осадков за период времени, мм. При наведении курсора мыши на число - период времени, за который выпало указанное количество осадков.
  • R24 - Количество осадков - Количество выпавших осадков за 24 часа, мм.
  • S - Снежный покров - Высота снежного покрова, см. При наведении курсора мыши на число - состояние снежного покрова и степень покрытия местности в баллах.